Track STARLINK-1439 now! 10-day predictions STARLINK-1439 is classified as:
1 45716U 20035BM 21027.57173922 -.00001506 00000-0 -14351-4 0 9993 2 45716 52.9981 89.4468 0007393 44.0302 316.1295 15.55840425 38426